Date String (YYYY-MM-DD hh:mm:ss) UTC,Instrument flags,Ambient pressure (hPa),Sample flow (lpm),Bypass flow (lpm),Sample temperature (°C),Ambient temperature (°C),ASC tube jacket temperature (°C),LED temperature (°C),Box temperature (°C),Sample RH (%),Span deviation,Mass concentration (μg/m³),Mass concentration (μg/m³),Mass concentration (μg/m³)
DateTimeUTC,F1_M11,P_M11,Q1_M11,Q2_M11,T1_M11,T2_M11,T3_M11,T4_M11,T5_M11,U1_M11,ZSPAN_M11,X0_M11,X2_M11,X1_M11
2021-12-30 20:00:00,,0806.2,5.00,0.00,21.9,20.9,00.0,31.0,23.6,07.2,0000.0,0027.21,0002.91,0000.46
2021-12-30 20:01:00,,0806.1,4.99,0.00,21.9,20.9,00.0,31.0,23.6,07.3,0000.0,0028.65,0002.92,0000.39
2021-12-30 20:02:00,,0805.9,5.02,0.00,21.9,20.9,00.0,31.0,23.6,07.3,0000.0,0028.41,0003.00,0000.40
2021-12-30 20:03:00,,0805.8,5.00,0.00,21.9,20.9,00.0,31.0,23.6,07.4,0000.0,0028.03,0003.02,0000.40
2021-12-30 20:04:00,,0806.5,5.00,0.00,21.9,20.8,00.0,31.0,23.5,07.5,0000.0,0026.94,0002.93,0000.40
2021-12-30 20:05:00,,0806.2,5.00,0.00,21.8,20.9,00.0,30.9,23.4,07.4,0000.0,0026.03,0002.93,0000.39
2021-12-30 20:06:00,,0806.2,4.99,0.00,21.8,20.8,00.0,30.9,23.4,07.6,0000.0,0026.25,0002.99,0000.40
2021-12-30 20:07:00,,0806.1,5.00,0.00,21.8,20.8,00.0,30.9,23.4,07.6,0000.0,0025.98,0002.81,0000.37
2021-12-30 20:08:00,,0805.7,4.99,0.00,21.8,20.8,00.0,30.9,23.4,07.5,0000.0,0023.89,0002.58,0000.32
2021-12-30 20:09:00,,0805.5,5.00,0.00,21.7,20.7,00.0,30.9,23.4,07.5,0000.0,0020.34,0002.54,0000.31
2021-12-30 20:10:00,,0805.6,5.02,0.00,21.7,20.7,00.0,30.8,23.3,07.5,0000.0,0016.66,0002.49,0000.32
2021-12-30 20:11:00,,0806.0,5.01,0.00,21.7,20.9,00.0,30.8,23.3,07.2,0000.0,0020.06,0002.84,0000.34
2021-12-30 20:12:00,,0806.0,5.00,0.00,21.8,21.7,00.0,30.9,23.6,07.3,0000.0,0021.47,0003.26,0000.62
2021-12-30 20:13:00,,0805.8,5.00,0.00,22.0,22.6,00.0,30.9,24.0,07.3,0000.0,0023.16,0003.73,0001.40
2021-12-30 20:14:00,,0805.6,5.00,0.00,22.1,22.8,00.0,31.0,24.1,07.3,0000.0,0022.98,0003.73,0001.47
2021-12-30 20:15:00,,0805.6,5.00,0.00,22.1,22.5,00.0,31.0,23.9,07.3,0000.0,0023.15,0003.83,0001.62
2021-12-30 20:16:00,,0805.2,5.00,0.00,22.1,22.2,00.0,31.0,23.8,07.2,0000.0,0023.84,0004.17,0002.23
2021-12-30 20:17:00,,0805.0,4.99,0.00,22.1,21.9,00.0,31.0,23.8,07.2,0000.0,0024.64,0004.62,0003.07
2021-12-30 20:18:00,,0804.7,5.00,0.00,22.0,21.7,00.0,31.0,23.7,07.3,0000.0,0027.57,0005.02,0003.32
2021-12-30 20:19:00,,0805.4,5.00,0.00,22.0,21.5,00.0,31.0,23.7,07.3,0000.0,0029.64,0005.41,0003.53
2021-12-30 20:20:00,,0804.8,5.00,0.00,22.0,21.4,00.0,31.0,23.7,07.5,0003.2,0029.78,0006.24,0004.37
2021-12-30 20:21:00,,0804.9,5.00,0.00,22.0,21.3,00.0,31.0,23.6,07.4,0004.0,0030.13,0006.56,0004.79
2021-12-30 20:22:00,,0804.8,5.00,0.00,22.0,21.2,00.0,31.0,23.6,07.5,0004.1,0026.16,0006.46,0004.82
2021-12-30 20:23:00,,0804.9,5.00,0.00,21.9,21.1,00.0,31.0,23.6,07.6,0004.2,0024.36,0006.28,0004.74
2021-12-30 20:24:00,,0804.5,5.00,0.00,21.9,21.0,00.0,30.9,23.5,07.6,0004.3,0024.02,0005.86,0004.32
2021-12-30 20:25:00,,0804.5,5.00,0.00,21.9,20.9,00.0,30.9,23.5,07.6,0004.2,0026.65,0006.12,0004.27
2021-12-30 20:26:00,,0804.8,5.01,0.00,21.8,20.8,00.0,30.9,23.4,07.8,0004.2,0028.38,0006.27,0004.23
2021-12-30 20:27:00,,0804.7,5.02,0.00,21.8,20.8,00.0,30.9,23.4,07.8,0004.1,0028.26,0006.13,0004.06
2021-12-30 20:28:00,,0804.7,5.00,0.00,21.8,20.8,00.0,30.9,23.4,07.7,0004.2,0027.65,0005.65,0003.59
2021-12-30 20:29:00,,0804.4,5.01,0.00,21.8,21.3,00.0,30.9,23.6,07.6,0000.3,0024.74,0005.32,0003.36
2021-12-30 20:30:00,,0804.6,5.00,0.00,22.0,22.2,00.0,30.9,23.9,07.4,0000.0,0021.58,0004.95,0003.23
2021-12-30 20:31:00,,0804.6,5.01,0.00,22.1,22.9,00.0,31.0,24.2,07.4,0000.0,0020.74,0004.20,0002.03
2021-12-30 20:32:00,,0804.8,4.99,0.00,22.2,22.9,00.0,31.0,24.2,07.4,0000.0,0020.56,0003.61,0000.94
2021-12-30 20:33:00,,0804.7,5.00,0.00,22.2,22.5,00.0,31.1,24.2,07.2,0000.0,0020.08,0003.51,0000.82
2021-12-30 20:34:00,,0804.5,5.01,0.00,22.2,22.2,00.0,31.1,24.1,07.1,0000.0,0020.61,0003.44,0000.84
2021-12-30 20:35:00,,0804.9,4.98,0.00,22.2,22.0,00.0,31.1,24.0,07.1,0000.0,0020.40,0003.57,0000.87
2021-12-30 20:36:00,,0804.7,5.00,0.00,22.2,21.8,00.0,31.1,23.9,07.1,0000.0,0023.97,0003.56,0000.87
2021-12-30 20:37:00,,0805.0,5.01,0.00,22.2,21.6,00.0,31.1,23.9,07.1,0000.0,0024.40,0003.41,0000.84
2021-12-30 20:38:00,,0804.8,5.00,0.00,22.2,21.5,00.0,31.1,23.9,07.1,0000.0,0025.50,0003.31,0000.77
2021-12-30 20:39:00,,0804.5,4.99,0.00,22.2,21.4,00.0,31.1,23.8,07.1,0000.0,0026.28,0003.26,0000.67
2021-12-30 20:40:00,,0805.0,4.99,0.00,22.1,21.2,00.0,31.1,23.8,07.1,0000.0,0028.10,0003.34,0000.67
2021-12-30 20:41:00,,0804.9,5.00,0.00,22.1,21.2,00.0,31.1,23.8,07.2,0000.0,0028.62,0003.36,0000.64
2021-12-30 20:42:00,,0804.5,5.00,0.00,22.1,21.1,00.0,31.0,23.7,07.2,0000.0,0028.60,0003.34,0000.67
2021-12-30 20:43:00,,0804.5,5.01,0.00,22.0,21.0,00.0,31.0,23.7,07.4,0000.0,0027.66,0003.36,0000.66
2021-12-30 20:44:00,,0805.0,5.00,0.00,22.0,21.1,00.0,31.0,23.7,07.3,0000.0,0031.26,0003.51,0000.64
2021-12-30 20:45:00,,0805.2,5.00,0.00,22.1,22.0,00.0,31.1,23.9,07.4,0000.0,0029.73,0003.51,0000.63
2021-12-30 20:46:00,,0804.5,5.00,0.00,22.2,22.9,00.0,31.1,24.2,07.2,0000.0,0031.62,0003.33,0000.60
2021-12-30 20:47:00,,0804.5,5.00,0.00,22.4,23.1,00.0,31.2,24.4,07.0,0000.0,0028.36,0003.21,0000.59
2021-12-30 20:48:00,,0804.3,5.02,0.00,22.4,22.9,00.0,31.2,24.4,07.0,0000.0,0029.00,0003.36,0000.62
2021-12-30 20:49:00,,0804.6,4.99,0.00,22.4,22.5,00.0,31.2,24.3,06.9,0000.0,0029.49,0003.54,0000.64
2021-12-30 20:50:00,,0804.7,4.99,0.00,22.4,22.2,00.0,31.2,24.2,06.9,0000.0,0030.30,0003.67,0000.65
2021-12-30 20:51:00,,0804.3,5.00,0.00,22.3,21.9,00.0,31.2,24.1,06.9,0000.0,0030.11,0003.61,0000.63
2021-12-30 20:52:00,,0804.5,5.00,0.00,22.3,21.7,00.0,31.2,24.0,06.9,0000.0,0030.91,0003.65,0000.63
2021-12-30 20:53:00,,0804.4,5.02,0.00,22.3,21.5,00.0,31.2,23.9,06.9,0000.0,0032.47,0003.69,0000.61
2021-12-30 20:54:00,,0805.2,4.98,0.00,22.2,21.4,00.0,31.2,23.9,06.9,0000.0,0032.62,0003.74,0000.62
2021-12-30 20:55:00,,0805.4,5.01,0.00,22.2,21.3,00.0,31.2,23.8,07.1,0000.0,0028.98,0003.59,0000.62
2021-12-30 20:56:00,,0805.0,5.01,0.00,22.2,21.3,00.0,31.2,23.8,07.2,0000.0,0028.88,0003.55,0000.61
2021-12-30 20:57:00,,0805.2,4.99,0.00,22.2,21.2,00.0,31.2,23.8,07.1,0000.0,0026.43,0003.54,0000.59
2021-12-30 20:58:00,,0805.4,5.01,0.00,22.1,21.1,00.0,31.2,23.8,07.2,0000.0,0023.69,0003.33,0000.55
2021-12-30 20:59:00,,0805.2,5.00,0.00,22.1,21.3,00.0,31.2,23.8,07.2,0000.0,0019.45,0002.98,0000.52
